Wind_Speed
70 68 63 57 54 52 54 58 58 55 47 43 42 39 35 30 29 32 30 31 31 29 29 29 27 27 29 29 29 29 32 33 35 35 34 29 32 33 31 31 38 40 46 48 50 54 54 57 58
73 72 69 66 55 59 63 64 61 56 51 48 46 43 37 36 35 35 35 33 32 30 29 29 30 32 32 34 33 33 33 33 33 33 31 35 35 27 30 38 41 46 51 53 53 55 56 59 58
78 76 75 68 63 68 72 70 62 59 53 52 47 45 41 43 41 41 40 40 36 35 32 31 32 34 34 36 36 38 36 37 36 36 35 37 34 29 38 38 42 49 52 52 54 55 57 54 58
83 81 76 74 70 76 80 73 69 65 61 54 49 47 45 46 46 46 45 44 42 40 38 37 38 41 40 40 41 41 40 40 36 40 39 39 38 39 43 43 50 54 55 58 54 57 57 59 59
85 80 78 79 75 81 84 78 70 71 66 60 54 52 51 51 51 51 52 51 48 46 45 42 43 46 46 47 47 48 47 49 50 45 44 43 41 46 44 53 53 54 54 54 58 57 60 61 63
87 83 79 79 83 87 86 83 76 75 71 66 59 60 59 55 54 53 55 55 55 52 50 47 44 47 51 50 50 50 47 48 49 51 49 46 47 47 50 49 51 51 55 55 59 61 63 64 66
89 87 81 85 89 89 87 84 80 78 75 72 66 68 64 60 58 58 60 58 56 56 54 49 47 51 50 50 51 53 52 55 51 54 52 48 48 46 47 51 58 59 56 65 64 69 64 65 70
97 94 85 88 98 94 92 86 84 83 83 77 72 72 71 68 65 65 65 63 62 60 57 55 52 51 51 50 53 56 57 56 57 56 51 47 47 48 53 57 64 64 63 68 72 72 70 72 73
105 96 92 96 100 100 97 94 89 90 90 83 78 77 77 74 72 71 70 66 66 63 60 57 54 53 53 56 59 60 61 59 55 56 55 53 54 54 54 61 63 58 66 71 73 74 75 74 77
112 101 103 106 106 103 98 98 97 94 96 89 85 82 78 78 77 75 73 71 69 68 67 63 59 60 59 59 63 65 65 61 61 60 57 55 54 53 58 61 63 61 67 69 68 67 77 77 81
107 108 111 112 110 107 101 100 104 100 102 95 91 88 86 82 80 79 78 76 74 73 69 68 65 62 62 62 61 62 64 63 64 65 64 61 59 57 62 63 61 67 69 62 64 80 81 81 83
103 111 113 113 110 110 106 102 100 96 98 100 95 92 86 86 85 82 84 80 76 76 74 72 70 69 65 61 60 66 67 66 65 66 65 65 63 65 66 64 63 63 64 61 76 84 81 83 81
104 110 111 116 110 112 112 106 104 94 96 99 100 97 95 94 87 85 87 84 83 79 78 75 74 74 68 70 70 66 68 67 69 68 68 67 68 63 61 63 67 60 62 69 82 81 82 88 82
106 107 110 116 117 110 115 114 105 97 98 106 101 100 97 96 88 86 88 90 85 86 80 78 78 77 69 68 69 69 69 68 70 72 68 67 65 63 58 67 63 60 64 78 82 83 87 86 72
110 108 110 114 119 115 113 109 102 105 103 103 101 101 101 97 94 93 89 90 94 87 86 82 81 78 73 74 75 73 74 72 66 62 64 71 66 65 60 64 58 63 78 79 83 87 87 76 66
111 109 110 113 116 123 118 105 114 111 106 102 104 101 103 100 95 90 93 88 87 89 91 90 85 80 74 70 74 71 70 65 56 58 61 64 65 63 65 56 60 66 78 83 85 87 81 67 64
108 105 107 110 114 114 117 111 112 114 114 110 98 99 97 100 104 101 94 96 98 94 91 91 89 80 77 77 71 65 55 52 54 57 59 58 67 70 70 63 68 81 86 85 85 79 72 64 65
104 104 106 108 110 110 111 111 117 116 117 112 113 106 103 98 101 105 104 97 94 94 93 76 77 79 77 75 71 61 55 57 53 54 57 67 70 73 78 68 79 77 80 83 84 73 62 65 70
103 105 106 108 110 110 113 114 116 120 117 118 114 113 101 106 104 99 106 105 105 102 95 86 84 79 73 70 72 67 74 73 77 75 76 80 69 75 84 83 81 79 79 83 78 62 63 71 73
100 107 108 110 112 113 116 115 116 120 119 120 121 120 115 108 101 116 114 104 104 103 102 100 101 101 98 97 93 88 89 89 89 84 82 83 84 86 86 85 85 80 77 81 68 63 68 74 72
80 105 111 112 114 115 117 116 121 122 121 119 122 123 122 118 118 116 112 109 98 106 111 107 104 100 99 101 99 98 96 92 92 93 92 93 93 93 86 81 84 75 85 76 67 66 68 74 66
67 80 106 113 114 116 118 116 119 122 126 129 127 124 124 124 119 115 114 114 109 103 104 108 110 108 108 110 106 101 97 94 95 98 98 89 85 78 75 81 74 76 80 68 70 69 72 76 75
76 76 81 106 116 117 120 120 115 121 126 132 133 132 130 129 130 128 124 120 118 116 109 99 98 97 98 95 92 94 95 89 87 85 85 80 79 80 81 81 75 83 74 70 72 73 76 78 78
77 81 83 85 102 117 122 126 116 122 126 130 135 135 136 136 133 132 131 129 127 126 124 119 109 97 87 87 86 80 80 81 82 84 82 84 86 87 77 74 88 82 73 74 76 78 80 80 72
72 79 85 89 92 98 115 127 118 123 127 126 129 133 134 136 137 136 136 132 130 129 126 124 123 120 116 108 97 90 89 86 87 89 96 97 97 96 94 88 84 76 77 75 76 76 77 72 66
74 77 81 85 94 99 101 103 111 122 125 130 129 131 133 135 134 133 131 127 126 126 124 122 117 112 113 112 112 111 108 105 103 103 102 99 93 87 84 79 75 72 72 75 75 71 69 64 61
77 79 83 81 83 88 93 100 104 106 107 124 129 131 133 134 133 133 131 129 126 125 120 118 113 109 106 101 99 96 95 93 92 95 91 82 79 76 73 71 71 70 70 71 70 64 63 61 58
73 75 79 81 78 78 83 88 98 104 106 107 116 128 136 136 136 131 127 126 124 122 120 116 112 108 104 99 95 91 88 85 84 83 79 75 75 72 70 68 68 67 67 64 58 58 60 57 57
58 59 65 66 65 67 68 73 86 98 98 98 113 119 120 128 131 130 126 122 121 120 118 114 110 105 101 98 95 92 89 87 82 79 77 75 72 69 67 64 62 62 59 55 55 56 56 56 57
51 53 51 51 53 57 58 61 68 77 86 91 96 109 114 113 112 114 119 119 119 117 114 110 106 102 100 96 92 90 87 82 79 76 73 73 69 69 66 63 60 57 53 52 53 55 54 58 57
Wind_Direction
237 237 239 232 233 235 236 234 233 235 227 224 230 234 237 240 244 250 252 251 257 264 264 264 267 274 280 283 285 294 297 301 299 301 312 320 323 316 309 301 300 312 317 324 327 326 330 328 328
235 235 239 236 233 235 237 237 235 233 233 230 227 232 237 240 247 250 251 253 254 259 261 268 270 276 280 289 290 290 295 298 305 306 308 315 316 310 318 309 311 318 321 325 325 328 329 329 329
233 234 238 237 239 237 238 238 237 234 232 233 232 234 236 243 243 250 253 256 257 258 259 266 271 275 278 280 284 291 293 296 304 311 308 312 317 302 313 316 316 318 321 323 325 325 327 329 327
233 234 233 237 237 234 237 239 238 236 236 235 235 236 238 242 244 248 252 256 258 259 263 267 270 270 273 276 280 284 285 288 297 305 306 307 307 310 311 311 314 317 319 319 323 325 326 323 327
234 235 231 233 230 232 237 239 240 239 239 235 237 240 242 240 242 245 249 253 257 261 262 267 271 276 277 277 281 286 288 294 296 299 304 303 303 305 304 307 314 313 315 317 319 324 324 321 321
231 232 232 230 229 230 234 239 239 240 241 238 237 240 241 245 244 245 246 249 252 258 261 265 268 272 276 280 283 288 291 289 289 291 293 294 301 305 304 311 309 315 320 323 322 325 323 321 320
229 231 231 227 228 231 235 235 239 241 239 238 238 239 240 242 244 249 250 250 254 255 262 264 265 270 274 280 285 286 287 287 290 290 292 294 300 300 305 305 306 313 308 323 325 325 324 319 321
226 227 226 228 229 227 235 236 233 239 242 237 237 241 242 242 243 247 250 252 255 256 258 258 260 263 270 276 280 284 284 287 292 291 290 294 295 297 300 304 309 308 307 319 324 325 325 322 320
225 226 223 226 229 230 231 236 234 236 236 237 236 240 244 245 245 245 251 252 253 254 256 254 255 261 268 273 278 280 281 286 291 292 290 294 297 296 299 304 310 305 313 317 321 323 322 321 321
227 223 223 225 228 230 231 234 236 237 238 238 238 238 242 244 244 244 247 251 253 256 256 256 257 261 264 267 273 277 279 284 286 291 292 292 292 294 299 306 311 306 314 317 321 321 321 320 322
227 225 226 225 227 229 230 235 238 238 243 241 236 239 239 238 243 247 248 250 251 254 254 255 259 261 264 266 268 275 279 282 286 288 289 294 291 291 301 308 308 311 313 315 316 318 320 319 322
228 225 224 227 228 229 230 233 237 241 246 245 240 239 238 243 243 243 246 247 249 251 252 254 256 260 265 268 271 278 279 282 284 288 287 291 290 294 302 306 310 311 309 311 316 319 320 320 324
227 226 223 225 228 229 231 233 235 237 242 246 243 240 239 240 240 242 247 250 250 254 256 255 258 261 265 267 271 275 278 281 284 287 287 286 291 297 303 304 307 307 305 310 315 318 319 321 324
225 225 224 224 226 228 231 232 233 236 240 243 243 244 242 239 241 241 246 250 251 254 254 257 263 262 265 266 270 272 277 281 284 286 284 285 290 297 299 304 309 302 302 309 312 316 317 319 320
223 223 224 224 225 227 230 233 234 236 238 243 243 243 244 244 242 243 245 247 249 252 250 257 261 263 264 264 268 271 274 280 278 281 283 290 294 299 300 306 304 300 303 307 312 315 316 317 316
221 222 224 224 226 227 229 229 232 234 237 244 244 245 245 246 246 246 246 245 248 249 251 256 259 261 262 263 266 269 273 276 275 277 282 282 293 297 300 301 297 300 303 308 309 311 313 315 313
220 223 225 226 226 228 230 228 231 234 236 237 242 245 245 245 245 244 246 248 250 253 255 256 258 258 256 262 266 270 268 267 269 269 271 275 290 291 296 296 295 300 301 305 309 312 309 311 311
221 223 225 228 229 227 228 229 231 231 234 237 240 244 245 243 245 246 247 247 249 252 252 249 251 252 257 262 266 262 265 271 263 269 274 281 285 288 293 290 299 298 300 305 307 307 311 308 311
224 225 226 228 230 229 228 228 232 234 233 233 237 241 241 246 242 246 249 248 250 250 247 246 248 249 251 254 259 257 262 266 266 270 271 277 278 285 287 293 294 297 299 307 308 303 309 312 315
227 227 228 228 229 230 229 228 229 236 238 237 236 239 242 240 243 246 245 248 249 250 252 253 254 254 255 257 258 258 260 265 269 272 274 277 277 284 289 289 293 296 301 305 304 304 308 315 313
233 230 229 230 231 231 231 230 233 235 236 238 238 239 239 242 243 243 244 247 250 253 250 250 252 255 258 260 262 265 267 268 270 272 275 279 283 288 291 290 292 295 300 300 301 304 306 317 314
238 235 234 232 233 233 233 230 234 235 235 236 239 241 240 239 240 242 244 244 243 248 253 254 254 255 257 258 260 263 266 269 269 272 276 280 283 286 288 289 290 293 297 297 299 303 305 307 312
242 239 236 236 234 234 237 233 233 238 236 236 238 239 240 241 241 242 243 244 246 248 249 251 257 259 261 263 264 266 268 270 271 272 277 279 283 284 285 289 285 291 294 295 296 299 302 303 309
245 245 241 238 238 236 238 238 230 236 238 237 238 240 242 244 244 245 248 249 250 250 250 251 249 249 251 257 260 260 263 265 262 267 271 274 277 279 281 276 286 290 292 292 294 296 298 302 305
250 249 246 244 242 240 240 239 237 236 238 239 239 241 242 243 245 247 248 250 250 251 251 252 253 255 252 249 251 252 255 257 258 261 269 272 274 276 276 280 282 286 286 288 290 295 297 302 305
255 254 252 247 246 245 245 244 242 241 239 241 240 241 241 243 244 245 246 248 249 250 251 251 253 254 256 258 258 259 260 262 263 265 268 270 273 276 278 280 281 284 285 286 289 294 299 301 303
257 258 257 254 251 248 249 249 246 242 239 241 241 242 242 242 242 243 244 246 247 250 250 251 252 253 256 257 258 259 260 260 260 264 268 272 271 272 276 279 279 280 283 284 288 293 298 299 301
263 261 263 262 258 255 251 247 249 247 240 237 240 240 242 241 243 242 243 245 246 248 251 252 253 254 256 257 258 259 260 261 262 265 268 269 268 270 271 274 275 277 279 282 289 293 294 296 298
266 261 260 262 263 259 256 253 247 246 246 238 237 239 239 241 241 243 243 243 245 246 248 250 252 253 254 255 257 258 260 261 263 264 266 268 270 269 270 271 274 275 279 284 289 291 293 293 297
267 264 262 261 261 263 257 255 251 247 245 243 239 238 239 239 242 241 242 243 242 244 246 247 249 252 253 254 255 256 258 261 263 264 264 265 266 267 267 267 268 274 279 283 286 288 290 295 295
Height
10884 10888 10893 10898 10906 10907 10903 10903 10906 10914 10923 10929 10936 10940 10944 10949 10948 10947 10950 10952 10954 10956 10957 10957 10958 10958 10958 10958 10958 10957 10957 10957 10957 10955 10954 10953 10951 10948 10946 10943 10941 10938 10936 10932 10928 10924 10920 10916 10913
10872 10878 10883 10889 10898 10896 10889 10889 10897 10907 10916 10921 10927 10935 10941 10941 10942 10941 10943 10945 10948 10949 10951 10952 10953 10953 10953 10953 10952 10952 10951 10951 10950 10950 10949 10949 10947 10944 10942 10940 10936 10933 10930 10926 10922 10917 10915 10911 10906
10857 10866 10873 10882 10887 10881 10872 10878 10890 10900 10906 10911 10922 10929 10933 10933 10936 10935 10936 10937 10941 10943 10945 10947 10947 10947 10947 10947 10947 10946 10946 10945 10945 10945 10944 10943 10942 10940 10938 10935 10931 10928 10925 10921 10917 10913 10910 10907 10900
10842 10852 10864 10872 10873 10863 10856 10868 10880 10889 10896 10907 10915 10920 10924 10925 10927 10929 10930 10929 10933 10936 10939 10941 10941 10941 10942 10941 10941 10941 10940 10939 10939 10939 10940 10938 10937 10935 10933 10930 10926 10922 10920 10916 10911 10907 10904 10900 10895
10827 10840 10852 10860 10860 10848 10844 10857 10871 10877 10887 10899 10906 10909 10910 10913 10916 10919 10921 10924 10925 10928 10930 10933 10935 10934 10934 10934 10935 10935 10934 10934 10935 10935 10935 10934 10933 10931 10928 10925 10920 10916 10913 10910 10906 10902 10897 10892 10887
10813 10826 10840 10847 10842 10833 10837 10848 10860 10863 10878 10888 10897 10896 10897 10904 10908 10911 10913 10915 10918 10919 10922 10925 10928 10927 10925 10927 10927 10928 10927 10926 10927 10927 10927 10927 10927 10925 10922 10918 10914 10910 10906 10902 10899 10895 10889 10884 10879
10800 10810 10826 10828 10824 10824 10831 10837 10848 10853 10862 10874 10884 10884 10890 10894 10899 10901 10902 10906 10910 10913 10914 10917 10920 10919 10919 10919 10919 10920 10919 10920 10921 10920 10919 10919 10920 10918 10916 10912 10908 10906 10900 10895 10891 10887 10881 10876 10871
10781 10790 10809 10815 10809 10813 10817 10828 10835 10838 10845 10859 10872 10873 10879 10882 10887 10888 10890 10898 10900 10903 10906 10909 10911 10911 10912 10912 10910 10911 10911 10912 10914 10913 10912 10911 10912 10910 10909 10905 10901 10898 10893 10889 10884 10880 10874 10869 10863
10759 10774 10795 10797 10792 10796 10803 10811 10819 10822 10828 10844 10857 10863 10867 10872 10877 10880 10880 10888 10888 10891 10895 10899 10902 10902 10904 10904 10902 10902 10902 10904 10904 10903 10904 10904 10904 10902 10901 10898 10895 10890 10886 10881 10876 10871 10866 10861 10854
10738 10761 10771 10772 10770 10779 10793 10798 10803 10809 10811 10830 10841 10849 10855 10860 10863 10867 10869 10876 10877 10879 10884 10889 10891 10893 10895 10896 10895 10894 10892 10895 10895 10895 10895 10895 10895 10894 10893 10890 10886 10883 10878 10873 10869 10864 10860 10852 10846
10722 10741 10747 10752 10755 10768 10782 10786 10784 10798 10798 10813 10825 10833 10840 10846 10853 10854 10857 10863 10867 10867 10873 10877 10880 10881 10884 10886 10887 10885 10885 10887 10886 10886 10887 10887 10886 10885 10883 10881 10879 10874 10868 10865 10861 10856 10850 10844 10837
10702 10713 10728 10738 10744 10757 10764 10768 10775 10787 10781 10788 10808 10817 10823 10833 10840 10844 10842 10847 10852 10857 10862 10866 10869 10871 10874 10876 10880 10878 10877 10878 10877 10876 10878 10877 10877 10876 10875 10873 10870 10868 10862 10857 10851 10846 10841 10835 10829
10677 10691 10708 10719 10728 10737 10743 10753 10763 10780 10764 10760 10784 10800 10809 10819 10829 10829 10829 10838 10839 10844 10850 10856 10857 10860 10864 10867 10870 10871 10868 10871 10870 10867 10868 10866 10868 10866 10866 10864 10862 10859 10855 10849 10844 10839 10833 10827 10821
10656 10671 10688 10700 10709 10719 10724 10735 10753 10754 10752 10746 10763 10780 10791 10801 10812 10817 10820 10821 10828 10831 10839 10840 10846 10849 10855 10859 10859 10861 10862 10861 10863 10859 10856 10854 10858 10858 10858 10854 10851 10849 10847 10843 10836 10832 10825 10819 10813
10636 10653 10667 10680 10692 10704 10709 10733 10748 10728 10730 10733 10746 10760 10774 10786 10795 10803 10806 10811 10814 10818 10823 10828 10831 10838 10844 10848 10847 10852 10853 10855 10854 10851 10847 10844 10846 10848 10849 10844 10842 10839 10838 10834 10828 10825 10817 10812 10806
10617 10631 10646 10660 10670 10679 10698 10717 10717 10713 10721 10724 10730 10745 10759 10770 10780 10787 10791 10794 10799 10805 10814 10816 10820 10829 10832 10837 10838 10843 10845 10848 10844 10842 10839 10834 10834 10835 10839 10839 10835 10832 10827 10826 10821 10817 10810 10805 10800
10600 10617 10629 10640 10651 10663 10678 10695 10694 10701 10707 10714 10714 10724 10739 10751 10760 10768 10774 10780 10786 10793 10800 10808 10811 10816 10821 10826 10830 10834 10838 10838 10837 10833 10830 10827 10824 10827 10830 10831 10827 10822 10819 10816 10814 10806 10802 10795 10792
10587 10600 10611 10621 10632 10645 10655 10669 10671 10680 10690 10694 10699 10706 10719 10731 10739 10748 10757 10765 10767 10775 10787 10793 10796 10803 10809 10815 10821 10825 10827 10827 10827 10825 10822 10821 10817 10818 10821 10824 10819 10814 10810 10808 10805 10796 10791 10787 10784
10572 10582 10592 10602 10611 10626 10635 10651 10656 10657 10669 10678 10680 10687 10698 10710 10719 10725 10735 10744 10750 10760 10767 10777 10781 10788 10794 10803 10810 10814 10817 10820 10819 10819 10816 10813 10813 10810 10814 10816 10810 10805 10803 10799 10794 10787 10782 10778 10775
10554 10563 10572 10582 10591 10603 10613 10632 10639 10641 10648 10658 10664 10668 10677 10687 10697 10704 10714 10722 10734 10744 10753 10760 10768 10773 10779 10787 10793 10800 10802 10806 10807 10806 10802 10800 10802 10806 10809 10805 10799 10796 10795 10790 10784 10779 10773 10769 10765
10537 10545 10553 10563 10571 10582 10593 10617 10617 10622 10629 10635 10643 10648 10656 10665 10675 10684 10694 10703 10710 10719 10731 10742 10751 10756 10764 10771 10778 10785 10789 10792 10793 10791 10786 10786 10793 10797 10798 10792 10789 10786 10786 10782 10774 10770 10766 10761 10756
10521 10527 10535 10544 10553 10561 10571 10596 10595 10598 10606 10613 10620 10627 10634 10643 10649 10660 10671 10684 10693 10700 10708 10719 10732 10743 10750 10754 10766 10770 10775 10779 10779 10777 10775 10778 10781 10785 10784 10780 10777 10776 10775 10772 10765 10761 10757 10753 10749
10505 10509 10513 10521 10530 10543 10540 10561 10581 10575 10582 10587 10592 10600 10608 10615 10628 10636 10646 10659 10671 10681 10693 10701 10713 10726 10732 10737 10747 10755 10761 10763 10759 10761 10763 10766 10768 10769 10769 10768 10768 10766 10765 10761 10755 10751 10748 10745 10739
10488 10491 10495 10501 10507 10518 10515 10517 10567 10549 10548 10561 10570 10578 10586 10595 10604 10617 10623 10633 10644 10657 10670 10683 10698 10711 10718 10724 10734 10743 10747 10749 10744 10746 10749 10752 10757 10758 10757 10758 10757 10755 10754 10750 10745 10743 10739 10735 10728
10470 10468 10475 10483 10484 10490 10488 10493 10533 10525 10530 10539 10550 10557 10566 10575 10583 10591 10603 10611 10623 10634 10648 10661 10675 10687 10702 10716 10724 10730 10736 10737 10734 10737 10739 10740 10743 10747 10746 10747 10745 10744 10742 10737 10736 10732 10729 10723 10717
10449 10450 10452 10458 10460 10468 10466 10482 10499 10503 10510 10514 10522 10527 10536 10543 10556 10568 10575 10589 10598 10609 10622 10639 10655 10671 10679 10694 10701 10710 10717 10724 10722 10724 10727 10730 10734 10734 10734 10734 10733 10730 10727 10725 10723 10720 10717 10712 10706
10431 10429 10427 10433 10440 10445 10449 10453 10459 10466 10481 10489 10496 10498 10507 10514 10524 10536 10551 10566 10575 10584 10601 10616 10632 10649 10659 10669 10679 10690 10695 10702 10704 10702 10712 10719 10719 10717 10719 10718 10718 10717 10714 10712 10712 10709 10705 10700 10695
10411 10411 10408 10406 10411 10419 10422 10428 10418 10424 10441 10459 10456 10464 10462 10476 10488 10510 10529 10542 10556 10567 10578 10594 10611 10628 10639 10649 10658 10667 10673 10681 10686 10689 10696 10700 10701 10704 10704 10705 10705 10704 10702 10702 10700 10697 10694 10690 10685
10389 10389 10386 10386 10389 10389 10394 10397 10387 10388 10401 10421 10422 10426 10435 10444 10465 10485 10504 10521 10536 10548 10560 10574 10588 10606 10620 10631 10640 10648 10655 10663 10671 10676 10679 10683 10686 10688 10689 10690 10689 10689 10689 10689 10687 10685 10682 10677 10673
10370 10367 10371 10372 10369 10367 10371 10372 10370 10368 10371 10381 10394 10399 10412 10430 10446 10463 10476 10495 10510 10527 10542 10559 10574 10588 10599 10610 10621 10630 10639 10649 10657 10661 10662 10664 10669 10671 10674 10675 10675 10676 10675 10676 10675 10674 10670 10667 10662